Погода в Жарыке

Поиск расширенной информации на нашем сайте:

Полезная информация:

Новости сайта



02.01.2020
Опубликован Долгосрочный прогноз погоды по городам России и ближнего зарубежья на январь 2020 года.
Карты: Прогноз на январь и февраль 2020 года, Сравнение прогнозируемой аномалии приземной температуры воздуха на январь 2020 года по разным моделям.




Погода в Жарыке - сегодня

Время (UTC), дата Ветер
(°,м/с) 
Видим.   Явления Облачность Т
(°С)
Тd
(°С)
f(%) Тe
(°С)
Pmin
(гПа)
dP
(гПа)
Po
(мм)
O2
(г/м3)
Тmin Tmax R s Состояние
почвы
12 22.10.21 230 (ЮЗ) 20000 м  {ливн. осадки}  8/5 600 м кучево-дожд., средняя 
[Cb cap|Ac lent]
+1.5 -4.5 64 1028.1  0.7  711  285           
15 22.10.21 200 (Ю) н/о  слаб. ливневой снег  10/10 600 м кучево-дожд. 
[Cb cap]
-0.3 -1.4 92 -3  1030.6  1.8  713  288    +2  0.3     
18 22.10.21 230 (ЮЗ) н/о  {ливн. осадки}  10/10 600 м кучево-дожд. 
[Cb cap]
+0.6 -3.2 76 -1  1030.5  0.1  713  287    +2  0.3     
21 22.10.21 230 (ЮЗ) н/о    10/10 600 м кучево-дожд. 
[Cb cap]
+0.3 -2.6 81 -2  1030.5  713  287           
00 23.10.21 230 (ЮЗ) н/о  слаб. ливневой дождь со снегом  10/10 600 м кучево-дожд. 
[Cb cap]
+0.2 -0.6 94 -2  1031  0.4  713  287           
03 23.10.21 230 (ЮЗ) 10 км  слаб. ливневой снег  10/10 600 м кучево-дожд. 
[Cb cap]
+0.3 -0.8 92 -2  1031.6  0.6  714  287         
06 23.10.21 230 (ЮЗ) 20000 м  {ливн. осадки}  9/6 600 м кучево-дожд., средняя, верхняя 
[Cb cap|Ac trans|Ci fib]
+3.7 +0.1 77 +1  1030.7  0.1  714  284  -0.3       
09 23.10.21 230 (ЮЗ) 20000 м    4/1 600 м кучево-дожд., средняя 
[Cb cap|Ac trans]
+6.9 -1.1 57 +5  1029  -0.7  713  280           
12 23.10.21 230 (ЮЗ) 20000 м    ясно 
+6.6 -2.8 51 +6  1029.3  0.2  713  281           
15 23.10.21 230 (ЮЗ) н/о    8/8 600 м кучево-дожд. 
[Cb cap]
+4.4 -3.1 58 +3  1031.5  1.4  714  284    +7.5  0.3     
18 23.10.21 230 (ЮЗ) н/о    9/9 600 м кучево-дожд. 
[Cb cap]
+5.7 -3.4 52 +5  1031.1  714  282    +7.5  0.3     
21 23.10.21 230 (ЮЗ) н/о    9/9 600 м кучево-дожд. 
[Cb cap]
+5.1 -4.3 51 +4  1031.4  0.1  714  283           
00 24.10.21 230 (ЮЗ) н/о    10/10 600 м кучево-дожд. 
[Cb cap]
+4.8 -4 53 +4  1031.6  0.1  714  283           
03 24.10.21 230 (ЮЗ) 20000 м    9/9 600 м кучево-дожд. 
[Cb cap]
+4.8 -3.3 56 +6  1031.8  0.2  715  283           
06 24.10.21 230 (ЮЗ) 20000 м    9/9 600 м кучево-дожд. 
[Cb cap]
+8 -4.4 41 +8  1030.4  -0.5  714  280  +4.4         
09 24.10.21 230 (ЮЗ) 20000 м    4/4 1000 м 
[Sc]
+11.9 -1.3 40 +12  1026.8  -2.2  713  275           
12 24.10.21 180 (Ю) 20000 м    ясно 
+10.9 +1.1 51 +11  1026.5  -0.5  712  276           
15 24.10.21 180 (Ю) н/о    ясно 
+5.1 +0 70 +5  1027.8  -0.4  712  281    +11.9       
18 24.10.21 180 (Ю) н/о    ясно 
+3.4 -1.8 69 +3  1027.2  -1  711  283    +11.9       
21 24.10.21 140 (ЮВ) н/о    ясно 
+2.7 -1.1 76 +2  1025.5  -1.8  710  283           
00 25.10.21 140 (ЮВ) н/о    ясно 
+1.6 -1.7 79 -1  1024.6  -1.1  709  284           
03 25.10.21 140 (ЮВ) 20000 м    3/0 верхняя 
[Ci fib]
+4.2 -1.4 67 +4  1023.3  -0.5  709  281           
06 25.10.21 140 (ЮВ) 20000 м    8/0 верхняя 
[Ci fib]
+10.8 -2.7 39 +11  1020.8  -0.6  708  275  +1.6         
09 25.10.21 160 (Ю) 20000 м    8/0 верхняя 
[Ci fib]
+14.8 -1.2 33 +15  1017.7  -1.8  707  270           
12 25.10.21 160 (Ю) 20000 м    6/0 верхняя 
[Ci sp]
+10.7 +0.9 51 +11  1018  -0.8  706  274           
Время (UTC), дата Ветер
(°,м/с) 
Видим.   Явления Облачность Т
(°С)
Тd
(°С)
f(%) Тe
(°С)
Pmin
(гПа)
dP
(гПа)
Po
(мм)
O2
(г/м3)
Тmin Tmax R s Состояние
почвы

Для получения пояснительной информации подведите курсор к названию столбца.

ПОГОДА в Жарыке - архив

Всё, что Вы хотите узнать о погоде в Жарыке - удобно и подробно!

Выберите нужную дату (начиная с 1 января 2019* года) и нажмите кнопку "Найти".
Будут отображены архивные сводки погоды по пункту Жарык, начиная с указанной даты.


Отображать данные в формате CSV (для использования в таблицах Excel)


Внимание! Наш архив погоды предназначен исключительно для личного некоммерческого использования в познавательных целях. Если Вам необходимы официальные справки о состоянии погоды (для производственных, юридических, коммерческих и т.п. целей), обращайтесь в органы Росгидромета.

*Примечание: данная дата относится к архиву по метеостанциям СССР (Россия, СНГ, Балтия).
Архив по метеостанциям Зарубежной Европы и Азии (кроме Китая) хранится 10 дней, по другим регионам земного шара (Китай, Африка, Америка, Австралия, Океания) - 1 день.

Жарык - район местоположения метеостанции


Название, широта, долгота, высота метеостанции:
Жарык 48.9°ш. 72.9°д. 656 м над ур. моря [Казахстан]

Дополнительная информация

В oтличие oт бoльшинства пoгoдных сайтoв мы публикуем пoдрoбную метеoинфoрмацию в детальнoм прoфессиoнальнoм фoрмате.

Характеристики температуры и влажнoсти вoздуха измеряются на высoте 2 м в тени вдали oт зданий и деревьев.
Скoрoсть ветра измеряется на высoте 10 м (на урoвне рoста челoвека скoрoсть ветра ниже в 1.5-2 раза). Если метеoстанция нахoдится в гoрoде или в лесу, тo скoрoсть ветра занижена на 2-4 м/с пo сравнению с oткрытым местoм. Скoрoсть ветра над акватoриями крупных рек и oзёр, а также на вершинах хoлмoв на 2-5 м/с выше, чем в oбычных услoвиях.
Атмoсфернoе давление в разных тoчках местнoсти мoжет значительнo oтличаться oт давления на метеoстанции, в зависимoсти oт услoвий рельефа (при пoдъёме на 10 м давление пoнижается примернo на 1 мм рт.ст.).